TimeCDT,TemperatureF,Dew PointF,Humidity,Sea Level PressureIn,VisibilityMPH,Wind Direction,Wind SpeedMPH,Gust SpeedMPH,PrecipitationIn,Events,Conditions,WindDirDegrees,DateUTC
12:15 AM,71.6,68.0,88,29.98,7.0,Calm,Calm,-,N/A,,Clear,0,2013-07-11 05:15:00
12:55 AM,71.6,66.2,83,29.98,10.0,Calm,Calm,-,N/A,,Clear,0,2013-07-11 05:55:00
1:15 AM,71.6,66.2,83,29.98,10.0,NNE,3.5,-,N/A,,Clear,20,2013-07-11 06:15:00
1:35 AM,71.6,66.2,83,29.98,10.0,North,3.5,-,N/A,,Clear,10,2013-07-11 06:35:00
1:55 AM,71.6,66.2,83,29.98,10.0,Calm,Calm,-,N/A,,Clear,0,2013-07-11 06:55:00
2:15 AM,71.6,66.2,83,29.98,10.0,NNE,5.8,-,N/A,,Partly Cloudy,20,2013-07-11 07:15:00
2:35 AM,71.6,66.2,83,29.98,10.0,North,5.8,-,N/A,,Partly Cloudy,10,2013-07-11 07:35:00
2:55 AM,71.6,66.2,83,29.98,10.0,NNE,3.5,-,N/A,,Clear,20,2013-07-11 07:55:00
3:15 AM,71.6,66.2,83,29.98,10.0,NNE,4.6,-,N/A,,Clear,20,2013-07-11 08:15:00
3:35 AM,71.6,66.2,83,29.99,10.0,North,4.6,-,N/A,,Clear,10,2013-07-11 08:35:00
3:55 AM,69.8,66.2,88,29.99,10.0,North,4.6,-,N/A,,Clear,10,2013-07-11 08:55:00
4:15 AM,69.8,66.2,88,29.99,10.0,North,5.8,-,N/A,,Clear,10,2013-07-11 09:15:00
4:35 AM,69.8,66.2,88,29.99,10.0,North,5.8,-,N/A,,Clear,10,2013-07-11 09:35:00
4:55 AM,69.8,66.2,88,30.00,10.0,North,5.8,-,N/A,,Clear,10,2013-07-11 09:55:00
5:15 AM,69.8,64.4,83,30.00,10.0,NNE,6.9,-,N/A,,Clear,20,2013-07-11 10:15:00
5:35 AM,69.8,64.4,83,30.01,10.0,NNE,6.9,-,N/A,,Clear,20,2013-07-11 10:35:00
5:55 AM,69.8,64.4,83,30.01,10.0,NNE,9.2,-,N/A,,Clear,20,2013-07-11 10:55:00
6:15 AM,69.8,62.6,78,30.02,10.0,NNE,8.1,-,N/A,,Partly Cloudy,20,2013-07-11 11:15:00
6:35 AM,69.8,62.6,78,30.02,10.0,NNE,8.1,-,N/A,,Scattered Clouds,20,2013-07-11 11:35:00
6:55 AM,69.8,60.8,73,30.03,10.0,NNE,8.1,-,N/A,,Scattered Clouds,20,2013-07-11 11:55:00
7:15 AM,69.8,60.8,73,30.03,10.0,NNE,8.1,-,N/A,,Partly Cloudy,30,2013-07-11 12:15:00
7:35 AM,71.6,60.8,69,30.04,10.0,NNE,8.1,-,N/A,,Partly Cloudy,30,2013-07-11 12:35:00
7:55 AM,71.6,60.8,69,30.04,10.0,NNE,6.9,-,N/A,,Clear,30,2013-07-11 12:55:00
8:15 AM,73.4,59.0,61,30.04,10.0,NE,11.5,-,N/A,,Clear,40,2013-07-11 13:15:00
8:55 AM,75.2,60.8,61,30.04,10.0,NE,10.4,17.3,N/A,,Clear,50,2013-07-11 13:55:00
9:15 AM,-9999,-9999,N/A,30.04,10.0,NNE,9.2,-,N/A,,Clear,30,2013-07-11 14:15:00
9:35 AM,-9999,-9999,N/A,30.04,10.0,NE,11.5,16.1,N/A,,Clear,40,2013-07-11 14:35:00
9:55 AM,75.2,60.8,61,30.04,10.0,NE,11.5,19.6,N/A,,Clear,50,2013-07-11 14:55:00
10:16 AM,77.0,60.8,57,30.05,10.0,NNE,12.7,19.6,N/A,,Clear,30,2013-07-11 15:16:00
10:35 AM,78.8,60.8,54,30.06,10.0,NNE,10.4,-,N/A,,Clear,30,2013-07-11 15:35:00
10:55 AM,78.8,60.8,54,30.06,10.0,NNE,8.1,19.6,N/A,,Clear,30,2013-07-11 15:55:00
11:15 AM,78.8,60.8,54,30.07,10.0,NE,8.1,-,N/A,,Clear,50,2013-07-11 16:15:00
11:35 AM,78.8,59.0,51,30.07,10.0,NNE,10.4,-,N/A,,Clear,20,2013-07-11 16:35:00
11:55 AM,78.8,59.0,51,30.07,10.0,NNE,9.2,20.7,N/A,,Clear,20,2013-07-11 16:55:00
12:15 PM,80.6,60.8,51,30.07,9.0,NE,13.8,17.3,N/A,,Clear,50,2013-07-11 17:15:00
12:35 PM,80.6,60.8,51,30.07,10.0,NE,9.2,-,N/A,,Clear,50,2013-07-11 17:35:00
12:55 PM,80.6,60.8,51,30.06,10.0,NNE,11.5,-,N/A,,Clear,30,2013-07-11 17:55:00
1:15 PM,80.6,60.8,51,30.06,10.0,North,8.1,-,N/A,,Clear,10,2013-07-11 18:15:00
1:35 PM,80.6,60.8,51,30.06,10.0,NNE,6.9,-,N/A,,Clear,20,2013-07-11 18:35:00
1:55 PM,80.6,60.8,51,30.06,10.0,NE,9.2,-,N/A,,Partly Cloudy,40,2013-07-11 18:55:00
2:15 PM,80.6,60.8,51,30.07,10.0,NNE,11.5,17.3,N/A,,Partly Cloudy,30,2013-07-11 19:15:00
2:55 PM,80.6,60.8,51,30.06,10.0,NNE,8.1,-,N/A,,Partly Cloudy,20,2013-07-11 19:55:00
3:15 PM,80.6,62.6,54,30.06,10.0,NNE,9.2,16.1,N/A,,Partly Cloudy,20,2013-07-11 20:15:00
3:35 PM,80.6,60.8,51,30.06,10.0,North,4.6,-,N/A,,Clear,360,2013-07-11 20:35:00
3:55 PM,80.6,60.8,51,30.06,10.0,NNE,5.8,-,N/A,,Scattered Clouds,20,2013-07-11 20:55:00
4:15 PM,80.6,60.8,51,30.06,10.0,NNE,12.7,16.1,N/A,,Partly Cloudy,20,2013-07-11 21:15:00
4:35 PM,80.6,59.0,48,30.05,10.0,North,9.2,-,N/A,,Clear,10,2013-07-11 21:35:00
4:55 PM,80.6,60.8,51,30.05,10.0,NE,11.5,17.3,N/A,,Clear,40,2013-07-11 21:55:00
5:15 PM,80.6,59.0,48,30.05,10.0,NNE,8.1,16.1,N/A,,Clear,20,2013-07-11 22:15:00
5:55 PM,78.8,60.8,54,30.05,10.0,NE,10.4,17.3,N/A,,Partly Cloudy,40,2013-07-11 22:55:00
6:15 PM,78.8,59.0,51,30.04,10.0,NE,9.2,17.3,N/A,,Partly Cloudy,40,2013-07-11 23:15:00
6:35 PM,78.8,60.8,54,30.04,10.0,NE,6.9,-,N/A,,Scattered Clouds,40,2013-07-11 23:35:00
6:55 PM,77.0,60.8,57,30.04,10.0,NNE,5.8,-,N/A,,Partly Cloudy,20,2013-07-11 23:55:00
7:15 PM,75.2,60.8,61,30.04,10.0,NNE,4.6,-,N/A,,Clear,30,2013-07-12 00:15:00
7:35 PM,75.2,60.8,61,30.03,10.0,NNE,4.6,-,N/A,,Clear,20,2013-07-12 00:35:00
7:55 PM,73.4,60.8,65,30.03,10.0,NNE,3.5,-,N/A,,Clear,20,2013-07-12 00:55:00
8:15 PM,71.6,62.6,73,30.04,10.0,Calm,Calm,-,N/A,,Clear,0,2013-07-12 01:15:00
8:35 PM,69.8,62.6,78,30.03,10.0,North,3.5,-,N/A,,Clear,10,2013-07-12 01:35:00
8:55 PM,66.2,62.6,88,30.03,5.0,Calm,Calm,-,N/A,,Clear,0,2013-07-12 01:55:00
9:15 PM,66.2,62.6,88,30.04,10.0,Calm,Calm,-,N/A,,Clear,0,2013-07-12 02:15:00
9:35 PM,64.4,62.6,94,30.04,2.0,Calm,Calm,-,N/A,,Clear,0,2013-07-12 02:35:00
9:55 PM,62.6,62.6,100,30.05,4.0,Calm,Calm,-,N/A,,Clear,0,2013-07-12 02:55:00
10:15 PM,62.6,60.8,94,30.05,8.0,North,3.5,-,N/A,,Clear,360,2013-07-12 03:15:00
10:35 PM,62.6,60.8,94,30.05,6.0,Calm,Calm,-,N/A,,Clear,0,2013-07-12 03:35:00
10:55 PM,62.6,60.8,94,30.05,4.0,Calm,Calm,-,N/A,,Clear,0,2013-07-12 03:55:00
11:15 PM,62.6,60.8,94,30.06,5.0,Calm,Calm,-,N/A,,Clear,0,2013-07-12 04:15:00
11:35 PM,64.4,60.8,88,30.06,5.0,North,4.6,-,N/A,,Clear,10,2013-07-12 04:35:00
11:55 PM,64.4,60.8,88,30.06,9.0,NNE,4.6,-,N/A,,Clear,20,2013-07-12 04:55:00